| time (UTC) | temp C | wind direction | speed KPH | gust KPH | rain 1hr cm | rain 24hr cm | rain mn cm | humidity % | barometer mb |
| 20260505091741 | 10 | 294 | 0.0 | 0.0 | 0.00 | 0.00 | 0.00 | 88 | 1012.0 |
| 20260505091239 | 10 | 311 | 0.0 | 0.0 | 0.00 | 0.00 | 0.00 | 90 | 1011.8 |
| 20260505090736 | 10 | 308 | 0.0 | 0.0 | 0.00 | 0.00 | 0.00 | 89 | 1011.7 |
| 20260505090235 | 10 | 310 | 0.0 | 0.0 | 0.00 | 0.00 | 0.00 | 89 | 1011.8 |
| 20260505085732 | 10 | 310 | 0.0 | 0.0 | 0.00 | 0.00 | 0.00 | 89 | 1011.8 |
| 20260505085230 | 10 | 333 | 0.0 | 0.0 | 0.00 | 0.00 | 0.00 | 88 | 1011.7 |
| 20260505084727 | 10 | 276 | 0.0 | 0.0 | 0.00 | 0.00 | 0.00 | 89 | 1011.8 |
| 20260505084226 | 10 | 318 | 0.0 | 0.0 | 0.00 | 0.00 | 0.00 | 90 | 1011.9 |
| 20260505083722 | 10 | 300 | 0.0 | 0.0 | 0.00 | 0.00 | 0.00 | 90 | 1011.7 |
| 20260505083219 | 10 | 296 | 0.0 | 0.0 | 0.00 | 0.00 | 0.00 | 90 | 1011.7 |
| 20260505082715 | 10 | 253 | 0.0 | 0.0 | 0.00 | 0.00 | 0.00 | 90 | 1011.8 |
| 20260505082213 | 10 | 312 | 0.0 | 0.0 | 0.00 | 0.00 | 0.00 | 89 | 1011.8 |
| 20260505081708 | 10 | 272 | 0.0 | 0.0 | 0.00 | 0.00 | 0.00 | 89 | 1011.8 |
| 20260505081206 | 10 | 312 | 0.0 | 0.0 | 0.00 | 0.00 | 0.00 | 90 | 1011.7 |
| 20260505080703 | 10 | 309 | 0.0 | 0.0 | 0.00 | 0.00 | 0.00 | 91 | 1012.2 |
| 20260505080158 | 10 | 310 | 0.0 | 0.0 | 0.00 | 0.00 | 0.00 | 91 | 1011.9 |
| 20260505075654 | 10 | 312 | 0.0 | 0.0 | 0.00 | 0.00 | 0.00 | 91 | 1011.9 |
| 20260505075151 | 10 | 307 | 0.0 | 0.0 | 0.00 | 0.00 | 0.00 | 91 | 1012.0 |
| 20260505074648 | 10 | 313 | 0.0 | 0.0 | 0.00 | 0.00 | 0.00 | 91 | 1011.9 |
| 20260505074145 | 10 | 310 | 0.0 | 0.0 | 0.00 | 0.00 | 0.00 | 91 | 1012.3 |
| 20260505073643 | 10 | 301 | 0.0 | 0.0 | 0.00 | 0.00 | 0.00 | 91 | 1012.2 |
| 20260505073141 | 10 | 318 | 0.0 | 0.0 | 0.00 | 0.00 | 0.00 | 91 | 1012.1 |
| 20260505072636 | 10 | 255 | 0.0 | 0.0 | 0.00 | 0.00 | 0.00 | 91 | 1012.1 |
| 20260505072133 | 10 | 314 | 0.0 | 0.0 | 0.00 | 0.00 | 0.00 | 90 | 1012.3 |
| 20260505071629 | 10 | 312 | 0.0 | 0.0 | 0.00 | 0.00 | 0.00 | 90 | 1012.0 |
| 20260505071127 | 10 | 263 | 0.0 | 0.0 | 0.00 | 0.00 | 0.00 | 90 | 1012.1 |
| 20260505070624 | 10 | 304 | 0.0 | 0.0 | 0.00 | 0.00 | 0.00 | 90 | 1012.0 |
| 20260505070120 | 10 | 308 | 0.0 | 0.0 | 0.00 | 0.00 | 0.00 | 90 | 1012.1 |
| 20260505065616 | 10 | 310 | 0.0 | 0.0 | 0.00 | 0.00 | 0.00 | 89 | 1012.0 |
| 20260505065113 | 10 | 306 | 0.0 | 0.0 | 0.00 | 0.00 | 0.00 | 89 | 1012.0 |
| 20260505064610 | 10 | 254 | 0.0 | 0.0 | 0.00 | 0.00 | 0.00 | 89 | 1012.0 |
| 20260505064108 | 10 | 311 | 0.0 | 0.0 | 0.00 | 0.00 | 0.00 | 89 | 1011.8 |
| 20260505063605 | 10 | 301 | 0.0 | 0.0 | 0.00 | 0.00 | 0.00 | 89 | 1011.8 |
| 20260505063101 | 10 | 310 | 0.0 | 0.0 | 0.00 | 0.00 | 0.00 | 88 | 1011.7 |
| 20260505062557 | 10 | 292 | 0.0 | 0.0 | 0.00 | 0.00 | 0.00 | 88 | 1011.7 |
| 20260505062055 | 10 | 282 | 0.0 | 0.0 | 0.00 | 0.00 | 0.00 | 89 | 1011.7 |
| 20260505061552 | 10 | 255 | 0.0 | 0.0 | 0.00 | 0.00 | 0.00 | 88 | 1011.9 |
| 20260505061050 | 10 | 268 | 0.0 | 1.6 | 0.00 | 0.00 | 0.00 | 88 | 1011.8 |
| 20260505060547 | 10 | 275 | 0.0 | 0.0 | 0.00 | 0.00 | 0.00 | 88 | 1011.7 |
| 20260505060044 | 10 | 316 | 0.0 | 0.0 | 0.00 | 0.00 | 0.00 | 88 | 1011.9 |
| 20260505055539 | 10 | 282 | 0.0 | 0.0 | 0.00 | 0.00 | 0.00 | 88 | 1011.9 |
| 20260505055036 | 10 | 274 | 0.0 | 0.0 | 0.00 | 0.00 | 0.00 | 88 | 1011.7 |
| 20260505054533 | 10 | 325 | 0.0 | 0.0 | 0.00 | 0.00 | 0.00 | 88 | 1011.9 |
| 20260505054032 | 10 | 317 | 0.0 | 0.0 | 0.00 | 0.00 | 0.00 | 88 | 1012.0 |
| 20260505053528 | 10 | 326 | 0.0 | 0.0 | 0.00 | 0.00 | 0.00 | 88 | 1011.8 |
| 20260505053025 | 10 | 260 | 0.0 | 3.2 | 0.00 | 0.00 | 0.00 | 88 | 1011.8 |
| 20260505052522 | 10 | 289 | 0.0 | 0.0 | 0.00 | 0.00 | 0.00 | 88 | 1011.9 |
| 20260505052020 | 10 | 311 | 0.0 | 0.0 | 0.00 | 0.00 | 0.00 | 87 | 1011.8 |
| 20260505051516 | 10 | 259 | 0.0 | 0.0 | 0.00 | 0.00 | 0.00 | 87 | 1011.8 |
| 20260505051014 | 10 | 294 | 0.0 | 0.0 | 0.00 | 0.00 | 0.00 | 87 | 1011.9 |
| 20260505050512 | 10 | 297 | 0.0 | 0.0 | 0.00 | 0.00 | 0.00 | 87 | 1011.7 |
| 20260505041440 | 10 | 257 | 0.0 | 0.0 | 0.00 | 0.00 | 0.00 | 87 | 1012.1 |
| 20260505040937 | 10 | 273 | 0.0 | 1.6 | 0.00 | 0.00 | 0.00 | 86 | 1012.1 |
| 20260505040434 | 10 | 313 | 0.0 | 0.0 | 0.00 | 0.00 | 0.00 | 86 | 1012.1 |
| 20260505035931 | 10 | 272 | 0.0 | 0.0 | 0.00 | 0.00 | 0.00 | 86 | 1012.3 |
| 20260505035427 | 10 | 252 | 0.0 | 0.0 | 0.00 | 0.00 | 0.00 | 86 | 1012.5 |
| 20260505034925 | 10 | 268 | 0.0 | 1.6 | 0.00 | 0.00 | 0.00 | 86 | 1012.3 |
| 20260505034421 | 10 | 309 | 0.0 | 0.0 | 0.00 | 0.00 | 0.00 | 85 | 1012.5 |
| 20260505033918 | 10 | 291 | 0.0 | 0.0 | 0.00 | 0.00 | 0.00 | 85 | 1012.4 |
| 20260505033414 | 10 | 225 | 0.0 | 1.6 | 0.00 | 0.00 | 0.00 | 85 | 1012.5 |
| 20260505032913 | 10 | 264 | 0.0 | 0.0 | 0.00 | 0.00 | 0.00 | 84 | 1012.6 |
| 20260505032409 | 10 | 277 | 4.8 | 14.5 | 0.00 | 0.00 | 0.00 | 84 | 1012.4 |
| 20260505031906 | 10 | 284 | 0.0 | 0.0 | 0.00 | 0.00 | 0.00 | 84 | 1012.5 |
| 20260505031403 | 10 | 281 | 0.0 | 0.0 | 0.00 | 0.00 | 0.00 | 84 | 1012.2 |
| 20260505030900 | 10 | 293 | 1.6 | 3.2 | 0.00 | 0.00 | 0.00 | 83 | 1012.4 |
| 20260505030356 | 10 | 242 | 1.6 | 3.2 | 0.00 | 0.00 | 0.00 | 83 | 1012.5 |
| 20260505025851 | 10 | 291 | 0.0 | 0.0 | 0.00 | 0.00 | 0.00 | 83 | 1012.5 |
| 20260505025349 | 10 | 270 | 8.0 | 17.7 | 0.00 | 0.00 | 0.00 | 82 | 1012.4 |
| 20260505024848 | 11 | 264 | 3.2 | 9.7 | 0.00 | 0.00 | 0.00 | 82 | 1012.5 |
| 20260505024345 | 11 | 297 | 0.0 | 3.2 | 0.00 | 0.00 | 0.00 | 81 | 1012.5 |
| 20260505023842 | 11 | 247 | 4.8 | 11.3 | 0.00 | 0.00 | 0.00 | 81 | 1012.5 |
| 20260505023339 | 11 | 341 | 4.8 | 8.0 | 0.00 | 0.00 | 0.00 | 81 | 1012.5 |
| 20260505022836 | 11 | 266 | 0.0 | 1.6 | 0.00 | 0.00 | 0.00 | 80 | 1012.6 |
| 20260505022333 | 11 | 314 | 0.0 | 0.0 | 0.00 | 0.00 | 0.00 | 80 | 1012.5 |
| 20260505021831 | 11 | 287 | 1.6 | 3.2 | 0.00 | 0.00 | 0.00 | 80 | 1012.5 |
| 20260505021327 | 11 | 255 | 0.0 | 0.0 | 0.00 | 0.00 | 0.00 | 80 | 1012.4 |
| 20260505020823 | 11 | 231 | 0.0 | 3.2 | 0.00 | 0.00 | 0.00 | 79 | 1012.6 |
| 20260505020318 | 11 | 212 | 3.2 | 11.3 | 0.00 | 0.00 | 0.00 | 79 | 1012.4 |
| 20260505015815 | 11 | 189 | 4.8 | 12.9 | 0.00 | 0.00 | 0.00 | 80 | 1012.2 |
| 20260505015313 | 11 | 312 | 0.0 | 0.0 | 0.00 | 0.00 | 0.00 | 79 | 1012.3 |
| 20260505014810 | 11 | 248 | 0.0 | 0.0 | 0.00 | 0.00 | 0.00 | 79 | 1012.4 |
| 20260505014307 | 11 | 230 | 0.0 | 0.0 | 0.00 | 0.00 | 0.00 | 79 | 1012.1 |
| 20260505013803 | 11 | 244 | 3.2 | 9.7 | 0.00 | 0.00 | 0.00 | 79 | 1012.1 |
| 20260505013301 | 11 | 254 | 1.6 | 8.0 | 0.00 | 0.00 | 0.00 | 78 | 1012.0 |
| 20260505012759 | 11 | 262 | 0.0 | 0.0 | 0.00 | 0.00 | 0.00 | 79 | 1011.9 |
| 20260505012256 | 11 | 273 | 0.0 | 0.0 | 0.00 | 0.00 | 0.00 | 78 | 1011.6 |
| 20260505011752 | 11 | 293 | 0.0 | 0.0 | 0.00 | 0.00 | 0.00 | 78 | 1011.5 |
| 20260505011249 | 11 | 258 | 0.0 | 0.0 | 0.00 | 0.00 | 0.00 | 78 | 1011.6 |
| 20260505010744 | 11 | 255 | 0.0 | 0.0 | 0.00 | 0.00 | 0.00 | 77 | 1011.5 |
| 20260505010241 | 11 | 268 | 0.0 | 0.0 | 0.00 | 0.00 | 0.00 | 77 | 1011.6 |
| 20260505005737 | 11 | 301 | 1.6 | 4.8 | 0.00 | 0.00 | 0.00 | 76 | 1011.5 |
| 20260505005234 | 11 | 251 | 6.4 | 12.9 | 0.00 | 0.00 | 0.00 | 75 | 1011.5 |
| 20260505004732 | 11 | 295 | 0.0 | 4.8 | 0.00 | 0.00 | 0.00 | 75 | 1011.2 |
| 20260505004228 | 11 | 289 | 0.0 | 3.2 | 0.00 | 0.00 | 0.00 | 74 | 1011.3 |
| 20260505003725 | 11 | 218 | 0.0 | 1.6 | 0.00 | 0.00 | 0.00 | 73 | 1011.1 |
| 20260505003223 | 11 | 245 | 0.0 | 1.6 | 0.00 | 0.00 | 0.00 | 72 | 1011.1 |
| 20260505002719 | 11 | 265 | 0.0 | 1.6 | 0.00 | 0.00 | 0.00 | 73 | 1010.7 |
| 20260505002217 | 11 | 274 | 8.0 | 14.5 | 0.00 | 0.00 | 0.00 | 73 | 1011.0 |
| 20260505001714 | 11 | 311 | 0.0 | 0.0 | 0.00 | 0.00 | 0.00 | 73 | 1010.8 |
| 20260505001211 | 11 | 264 | 0.0 | 0.0 | 0.00 | 0.00 | 0.00 | 73 | 1010.6 |
| 20260505000708 | 11 | 237 | 1.6 | 4.8 | 0.00 | 0.00 | 0.00 | 73 | 1010.5 |
| 20260505000206 | 11 | 273 | 3.2 | 8.0 | 0.00 | 0.00 | 0.00 | 73 | 1010.5 |
| 20260504235702 | 11 | 294 | 3.2 | 8.0 | 0.00 | 0.00 | 0.00 | 72 | 1010.3 |
| 20260504235158 | 11 | 257 | 3.2 | 8.0 | 0.00 | 0.00 | 0.00 | 71 | 1010.5 |
| 20260504234656 | 11 | 273 | 4.8 | 9.7 | 0.00 | 0.00 | 0.00 | 70 | 1010.3 |
| 20260504234153 | 11 | 309 | 1.6 | 3.2 | 0.00 | 0.00 | 0.00 | 70 | 1010.2 |
| 20260504233649 | 11 | 314 | 0.0 | 1.6 | 0.00 | 0.00 | 0.00 | 70 | 1010.4 |
| 20260504233145 | 11 | 243 | 6.4 | 9.7 | 0.00 | 0.00 | 0.00 | 70 | 1010.4 |
| 20260504232643 | 11 | 280 | 0.0 | 3.2 | 0.00 | 0.00 | 0.00 | 70 | 1010.3 |
| 20260504232139 | 11 | 249 | 0.0 | 0.0 | 0.00 | 0.00 | 0.00 | 69 | 1010.1 |
| 20260504231636 | 11 | 270 | 9.7 | 14.5 | 0.00 | 0.00 | 0.00 | 69 | 1010.1 |
| 20260504231133 | 11 | 272 | 0.0 | 1.6 | 0.00 | 0.00 | 0.00 | 69 | 1010.1 |
| 20260504230629 | 11 | 311 | 0.0 | 0.0 | 0.00 | 0.00 | 0.00 | 69 | 1010.3 |
| 20260504230128 | 12 | 268 | 3.2 | 11.3 | 0.00 | 0.00 | 0.00 | 68 | 1010.0 |
| 20260504225626 | 12 | 278 | 0.0 | 0.0 | 0.00 | 0.00 | 0.00 | 68 | 1010.1 |
| 20260504225121 | 12 | 274 | 0.0 | 0.0 | 0.00 | 0.00 | 0.00 | 67 | 1010.0 |
| 20260504224618 | 12 | 316 | 4.8 | 12.9 | 0.00 | 0.00 | 0.00 | 66 | 1009.8 |
| 20260504224115 | 12 | 290 | 0.0 | 0.0 | 0.00 | 0.00 | 0.00 | 67 | 1010.0 |
| 20260504223612 | 12 | 298 | 0.0 | 0.0 | 0.00 | 0.00 | 0.00 | 67 | 1010.0 |
| 20260504223108 | 12 | 243 | 1.6 | 8.0 | 0.00 | 0.00 | 0.00 | 66 | 1009.9 |
| 20260504222605 | 12 | 281 | 6.4 | 12.9 | 0.00 | 0.00 | 0.00 | 67 | 1010.0 |
| 20260504222102 | 12 | 252 | 0.0 | 0.0 | 0.00 | 0.00 | 0.00 | 67 | 1009.8 |
| 20260504221559 | 12 | 308 | 1.6 | 3.2 | 0.00 | 0.00 | 0.00 | 67 | 1010.1 |
| 20260504221056 | 12 | 290 | 8.0 | 22.5 | 0.00 | 0.00 | 0.00 | 67 | 1010.0 |
| 20260504220553 | 12 | 323 | 0.0 | 0.0 | 0.00 | 0.00 | 0.00 | 66 | 1010.0 |
| 20260504220050 | 12 | 295 | 0.0 | 0.0 | 0.00 | 0.00 | 0.00 | 66 | 1010.2 |
| 20260504215546 | 12 | 235 | 1.6 | 3.2 | 0.00 | 0.00 | 0.00 | 65 | 1010.3 |
| 20260504215044 | 12 | 305 | 0.0 | 0.0 | 0.00 | 0.00 | 0.00 | 65 | 1010.2 |
| 20260504214539 | 12 | 325 | 1.6 | 8.0 | 0.00 | 0.00 | 0.00 | 65 | 1010.4 |
| 20260504214036 | 13 | 276 | 3.2 | 4.8 | 0.00 | 0.00 | 0.00 | 65 | 1010.2 |
| 20260504213532 | 13 | 255 | 8.0 | 12.9 | 0.00 | 0.00 | 0.00 | 64 | 1010.4 |
| 20260504213030 | 13 | 256 | 1.6 | 4.8 | 0.00 | 0.00 | 0.00 | 63 | 1010.3 |
| 20260504212526 | 13 | 292 | 0.0 | 1.6 | 0.00 | 0.00 | 0.00 | 64 | 1010.0 |
| 20260504212023 | 13 | 252 | 0.0 | 1.6 | 0.00 | 0.00 | 0.00 | 64 | 1010.3 |
| 20260504211520 | 13 | 258 | 1.6 | 8.0 | 0.00 | 0.00 | 0.00 | 64 | 1010.4 |
| 20260504211017 | 13 | 301 | 0.0 | 0.0 | 0.00 | 0.00 | 0.00 | 63 | 1010.3 |
| 20260504210514 | 13 | 298 | 3.2 | 20.9 | 0.00 | 0.00 | 0.00 | 63 | 1010.2 |
| 20260504210011 | 13 | 263 | 12.9 | 22.5 | 0.00 | 0.00 | 0.00 | 62 | 1010.2 |
| 20260504205509 | 13 | 263 | 0.0 | 0.0 | 0.00 | 0.00 | 0.00 | 62 | 1010.2 |
| 20260504205006 | 13 | 286 | 3.2 | 4.8 | 0.00 | 0.00 | 0.00 | 61 | 1010.0 |
| 20260504204504 | 13 | 315 | 0.0 | 0.0 | 0.00 | 0.00 | 0.00 | 62 | 1010.0 |
| 20260504204003 | 13 | 330 | 9.7 | 16.1 | 0.00 | 0.00 | 0.00 | 61 | 1010.2 |
| 20260504203500 | 14 | 293 | 1.6 | 3.2 | 0.00 | 0.00 | 0.00 | 60 | 1010.1 |
| 20260504202956 | 13 | 265 | 4.8 | 11.3 | 0.00 | 0.00 | 0.00 | 60 | 1010.0 |
| 20260504202453 | 13 | 251 | 0.0 | 0.0 | 0.00 | 0.00 | 0.00 | 62 | 1010.1 |
| 20260504201950 | 13 | 273 | 0.0 | 1.6 | 0.00 | 0.00 | 0.00 | 61 | 1010.1 |
| 20260504201447 | 13 | 285 | 0.0 | 0.0 | 0.00 | 0.00 | 0.00 | 62 | 1010.2 |
| 20260504200945 | 13 | 249 | 9.7 | 22.5 | 0.00 | 0.00 | 0.00 | 61 | 1009.8 |
| 20260504200441 | 13 | 290 | 0.0 | 3.2 | 0.00 | 0.00 | 0.00 | 62 | 1010.0 |
| 20260504195938 | 13 | 253 | 6.4 | 12.9 | 0.00 | 0.00 | 0.00 | 62 | 1010.4 |
| 20260504195434 | 13 | 302 | 0.0 | 0.0 | 0.00 | 0.00 | 0.00 | 64 | 1010.4 |
| 20260504194930 | 13 | 304 | 1.6 | 11.3 | 0.00 | 0.00 | 0.00 | 64 | 1010.3 |
| 20260504194426 | 13 | 285 | 1.6 | 12.9 | 0.00 | 0.00 | 0.00 | 63 | 1010.3 |
| 20260504193923 | 14 | 15 | 0.0 | 0.0 | 0.00 | 0.00 | 0.00 | 62 | 1010.5 |
| 20260504193420 | 13 | 282 | 1.6 | 4.8 | 0.00 | 0.00 | 0.00 | 62 | 1010.1 |
| 20260504192919 | 13 | 295 | 0.0 | 0.0 | 0.00 | 0.00 | 0.00 | 62 | 1010.2 |
| 20260504192415 | 13 | 288 | 1.6 | 9.7 | 0.00 | 0.00 | 0.00 | 64 | 1010.6 |
| 20260504191914 | 13 | 242 | 20.9 | 25.7 | 0.00 | 0.00 | 0.00 | 61 | 1010.1 |
| 20260504191412 | 13 | 311 | 0.0 | 0.0 | 0.00 | 0.00 | 0.00 | 65 | 1010.5 |
| 20260504190907 | 13 | 260 | 9.7 | 17.7 | 0.00 | 0.00 | 0.00 | 65 | 1010.7 |
| 20260504190403 | 13 | 259 | 0.0 | 1.6 | 0.00 | 0.00 | 0.00 | 66 | 1010.5 |
| 20260504185900 | 13 | 258 | 11.3 | 22.5 | 0.00 | 0.00 | 0.00 | 66 | 1010.6 |
| 20260504185357 | 13 | 254 | 0.0 | 0.0 | 0.00 | 0.00 | 0.00 | 66 | 1010.7 |
| 20260504184853 | 13 | 272 | 0.0 | 1.6 | 0.00 | 0.00 | 0.00 | 66 | 1010.9 |
| 20260504184349 | 13 | 242 | 1.6 | 12.9 | 0.00 | 0.00 | 0.00 | 67 | 1010.7 |
| 20260504183845 | 13 | 282 | 0.0 | 1.6 | 0.00 | 0.00 | 0.00 | 68 | 1010.9 |
| 20260504183343 | 13 | 314 | 1.6 | 8.0 | 0.00 | 0.00 | 0.00 | 67 | 1010.7 |
| 20260504182840 | 13 | 246 | 3.2 | 8.0 | 0.00 | 0.00 | 0.00 | 68 | 1010.8 |
| 20260504182337 | 13 | 300 | 3.2 | 4.8 | 0.00 | 0.00 | 0.00 | 67 | 1010.6 |
| 20260504181834 | 13 | 282 | 0.0 | 0.0 | 0.00 | 0.00 | 0.00 | 68 | 1010.5 |
| 20260504181331 | 13 | 246 | 3.2 | 11.3 | 0.00 | 0.00 | 0.00 | 68 | 1010.6 |
| 20260504180830 | 13 | 315 | 0.0 | 0.0 | 0.00 | 0.00 | 0.00 | 69 | 1010.6 |
| 20260504180328 | 13 | 240 | 6.4 | 16.1 | 0.00 | 0.00 | 0.00 | 67 | 1010.4 |
| 20260504175826 | 13 | 240 | 3.2 | 12.9 | 0.00 | 0.00 | 0.00 | 68 | 1010.4 |
| 20260504175322 | 13 | 249 | 1.6 | 8.0 | 0.00 | 0.00 | 0.00 | 69 | 1010.8 |
| 20260504174821 | 13 | 281 | 1.6 | 3.2 | 0.00 | 0.00 | 0.00 | 67 | 1010.6 |
| 20260504174318 | 13 | 306 | 0.0 | 0.0 | 0.00 | 0.00 | 0.00 | 68 | 1010.8 |
| 20260504173815 | 13 | 292 | 1.6 | 3.2 | 0.00 | 0.00 | 0.00 | 68 | 1010.9 |
| 20260504173311 | 13 | 258 | 0.0 | 1.6 | 0.00 | 0.00 | 0.00 | 68 | 1010.6 |
| 20260504172809 | 13 | 271 | 9.7 | 24.1 | 0.00 | 0.00 | 0.00 | 69 | 1010.5 |
| 20260504172305 | 13 | 317 | 8.0 | 14.5 | 0.00 | 0.00 | 0.00 | 68 | 1010.5 |
| 20260504171801 | 13 | 238 | 0.0 | 0.0 | 0.00 | 0.00 | 0.00 | 70 | 1010.8 |
| 20260504171258 | 13 | 279 | 1.6 | 9.7 | 0.00 | 0.00 | 0.00 | 69 | 1010.7 |
| 20260504170755 | 13 | 273 | 9.7 | 17.7 | 0.00 | 0.00 | 0.00 | 68 | 1010.7 |
| 20260504170252 | 13 | 276 | 16.1 | 24.1 | 0.00 | 0.00 | 0.00 | 68 | 1010.8 |
| 20260504160211 | 13 | 189 | 0.0 | 0.0 | 0.00 | 0.00 | 0.00 | 70 | 1011.1 |
| 20260504151139 | 13 | 273 | 8.0 | 12.9 | 0.00 | 0.00 | 0.00 | 64 | 1011.1 |
| 20260504150636 | 13 | 312 | 0.0 | 0.0 | 0.00 | 0.00 | 0.00 | 68 | 1011.4 |
| 20260504150133 | 13 | 310 | 1.6 | 4.8 | 0.00 | 0.00 | 0.00 | 66 | 1011.7 |
| 20260504141101 | 13 | 271 | 0.0 | 0.0 | 0.00 | 0.00 | 0.00 | 69 | 1011.8 |
| 20260504140558 | 13 | 215 | 3.2 | 8.0 | 0.00 | 0.00 | 0.00 | 64 | 1011.6 |
| 20260504130522 | 13 | 300 | 0.0 | 0.0 | 0.00 | 0.00 | 0.00 | 51 | 1012.0 |
| 20260504110410 | 11 | 323 | 0.0 | 0.0 | 0.00 | 0.00 | 0.00 | 72 | 1012.0 |
| 20260504100326 | 9 | 261 | 0.0 | 0.0 | 0.00 | 0.00 | 0.00 | 78 | 1011.9 |